Location: Dittelbrunn
(50.0738°N, 10.2196°E)
Time: 23:00:35
(UTC+00:00)

Cosmos 2098 Rocket - Pass Details

Date: 18 September 2020
Orbit: 366 x 1185 km, 82.9° (Epoch: 30 October)

Event Time Altitude Azimuth Distance (km) Brightness Sun altitude
Rises 20:52:14 0° 349° (N) 4,076 8.1 -30.3°
Reaches altitude 10° 20:55:03 10° 348° (NNW) 3,073 7.3 -30.6°
Maximum altitude 21:02:18 77° 265° (W) 1,087 4.1 -31.4°
Enters shadow 21:02:26 77° 252° (WSW) 1,086 4.1 -31.4°
